Location: Calvatone
(45.1167°N, 10.4333°E)
Time: 09:06:20
(UTC+00:00)

METEOR M2 - Pass Details

Date: 05 December 2023
Orbit: 818 x 826 km, 98.4° (Epoch: 24 February)

Event Time Altitude Azimuth Distance (km) Brightness Sun altitude
Rises 16:22:11 0° 170° (S) 3,350 ? -7.9°
Reaches altitude 10° 16:24:32 10° 172° (S) 2,421 ? -8.3°
Maximum altitude 16:29:54 73° 258° (WSW) 867 ? -9.2°
Drops below altitude 10° 16:35:18 10° 343° (NNW) 2,438 ? -10.1°
Sets 16:37:41 0° 345° (NNW) 3,375 ? -10.5°
